Date String (YYYY-MM-DD hh:mm:ss) UTC,Instrument flags,absolute air pressure of the measurement (hPa),sample flow rate (lpm),inlet stack bypass flow (lpm),air temperature of the measurement (°C),ambient temperature measured by the external sensor (°C),aerosol sample conditioner tube jacket temperature (°C),OPC LED temperature (°C),internal box temperature (°C),relative humidity of the measurement (%),span deviation,mass concentration of particles derived from Lorenz-Mie calculation of OPC scattering (μg/m³),mass concentration of particles derived from Lorenz-Mie calculation of OPC scattering (μg/m³),mass concentration of particles derived from Lorenz-Mie calculation of OPC scattering (μg/m³)
DateTimeUTC,F1_M11,P_M11,Q1_M11,Q2_M11,T1_M11,T2_M11,T3_M11,T4_M11,T5_M11,U1_M11,ZSPAN_M11,X2_M11,X0_M11,X1_M11
2023-07-25 04:00:00,SystemResetWarning,0835.2,4.99,000.00,029.0,027.5,000.0,037.3,030.7,32.2,0000.0,0005.85,0012.59,0004.87
2023-07-25 04:01:00,SystemResetWarning,0835.2,4.99,000.00,029.0,026.4,000.0,037.2,030.5,32.1,0000.0,0005.87,0012.56,0004.92
2023-07-25 04:02:00,SystemResetWarning,0835.1,5.00,000.00,029.0,025.5,000.0,037.2,030.4,32.2,0000.0,0005.86,0012.61,0004.96
2023-07-25 04:03:00,SystemResetWarning,0835.2,5.01,000.00,028.9,025.5,000.0,037.1,030.2,32.4,0000.0,0005.87,0012.49,0005.00
2023-07-25 04:04:00,SystemResetWarning,0835.2,5.02,000.00,028.8,025.8,000.0,037.2,030.2,32.3,0000.0,0005.95,0013.53,0005.04
2023-07-25 04:05:00,SystemResetWarning,0835.2,5.00,000.00,028.8,026.2,000.0,037.2,030.3,32.4,0000.0,0006.03,0014.23,0005.09
2023-07-25 04:06:00,SystemResetWarning,0835.2,4.99,000.00,028.8,026.6,000.0,037.3,030.4,32.5,0000.0,0006.03,0014.69,0005.12
2023-07-25 04:07:00,SystemResetWarning,0835.2,5.00,000.00,028.9,026.9,000.0,037.3,030.5,32.7,0000.0,0006.09,0014.83,0005.15
2023-07-25 04:08:00,SystemResetWarning,0835.3,5.01,000.00,028.9,027.2,000.0,037.3,030.6,32.9,0000.0,0006.11,0015.37,0005.17
2023-07-25 04:09:00,SystemResetWarning,0835.3,5.00,000.00,029.0,027.5,000.0,037.3,030.7,33.2,0000.0,0006.11,0015.63,0005.19
2023-07-25 04:10:00,SystemResetWarning,0835.3,5.00,000.00,029.0,027.7,000.0,037.3,030.7,33.5,0000.0,0006.13,0015.99,0005.20
2023-07-25 04:11:00,SystemResetWarning,0835.3,4.99,000.00,029.0,026.6,000.0,037.2,030.6,33.2,0000.0,0006.14,0016.03,0005.20
2023-07-25 04:12:00,SystemResetWarning,0835.2,5.01,000.00,028.9,025.0,000.0,037.1,030.3,33.3,0000.0,0006.12,0016.20,0005.19
2023-07-25 04:13:00,SystemResetWarning,0835.1,5.01,000.00,028.9,024.5,000.0,037.0,030.1,33.2,0000.0,0006.09,0016.19,0005.18
2023-07-25 04:14:00,SystemResetWarning,0835.1,5.00,000.00,028.7,024.8,000.0,037.1,030.0,33.2,0000.0,0006.07,0016.46,0005.17
2023-07-25 04:15:00,SystemResetWarning,0835.1,4.99,000.00,028.7,025.2,000.0,037.1,030.0,33.2,0000.0,0006.00,0015.02,0005.15
2023-07-25 04:16:00,SystemResetWarning,0835.2,5.00,000.00,028.7,025.7,000.0,037.1,030.1,33.0,0000.0,0005.93,0014.30,0005.13
2023-07-25 04:17:00,SystemResetWarning,0835.1,5.00,000.00,028.7,026.2,000.0,037.1,030.2,32.9,0000.0,0005.92,0014.32,0005.14
2023-07-25 04:18:00,SystemResetWarning,0835.2,5.01,000.00,028.7,026.6,000.0,037.1,030.3,32.6,0000.0,0005.91,0013.92,0005.14
2023-07-25 04:19:00,SystemResetWarning,0835.1,4.99,000.00,028.8,027.0,000.0,037.2,030.4,32.4,0000.0,0005.92,0014.24,0005.14
2023-07-25 04:20:00,SystemResetWarning,0835.1,5.00,000.00,028.8,027.2,000.0,037.2,030.5,32.1,0000.0,0005.98,0014.67,0005.14
2023-07-25 04:21:00,SystemResetWarning,0835.1,4.99,000.00,028.9,027.5,000.0,037.2,030.6,32.0,0000.0,0006.00,0014.52,0005.13
2023-07-25 04:22:00,SystemResetWarning,0835.1,4.99,000.00,028.9,027.7,000.0,037.2,030.6,31.9,0000.0,0005.98,0014.65,0005.15
2023-07-25 04:23:00,SystemResetWarning,0835.2,5.00,000.00,029.0,027.9,000.0,037.3,030.7,31.6,0000.0,0006.01,0014.49,0005.16
2023-07-25 04:24:00,SystemResetWarning,0835.2,5.00,000.00,029.0,027.3,000.0,037.2,030.7,31.6,0000.0,0006.03,0014.26,0005.16
2023-07-25 04:25:00,SystemResetWarning,0835.2,5.00,000.00,028.9,025.5,000.0,037.1,030.4,32.1,0000.0,0006.07,0013.72,0005.18
2023-07-25 04:26:00,SystemResetWarning,0835.2,5.00,000.00,028.9,024.6,000.0,037.0,030.2,32.5,0000.0,0006.12,0013.82,0005.20
2023-07-25 04:27:00,SystemResetWarning,0835.1,5.01,000.00,028.7,024.7,000.0,037.0,030.0,32.9,0000.0,0006.13,0014.07,0005.21
2023-07-25 04:28:00,SystemResetWarning,0835.1,5.00,000.00,028.7,025.0,000.0,037.0,030.0,33.1,0000.0,0006.16,0014.49,0005.22
2023-07-25 04:29:00,SystemResetWarning,0835.0,4.99,000.00,028.6,025.5,000.0,037.1,030.1,33.1,0000.0,0006.19,0014.38,0005.23
2023-07-25 04:30:00,SystemResetWarning,0834.9,5.00,000.00,028.7,026.0,000.0,037.1,030.2,33.4,0000.0,0006.22,0014.09,0005.22
2023-07-25 04:31:00,SystemResetWarning,0835.0,5.01,000.00,028.7,026.4,000.0,037.1,030.3,33.5,0000.0,0006.18,0013.67,0005.22
2023-07-25 04:32:00,SystemResetWarning,0835.4,5.00,000.00,028.7,026.8,000.0,037.1,030.3,33.5,0000.0,0006.19,0012.94,0005.22
2023-07-25 04:33:00,SystemResetWarning,0835.3,5.00,000.00,028.8,027.1,000.0,037.1,030.4,33.4,0000.0,0006.22,0013.83,0005.20
2023-07-25 04:34:00,SystemResetWarning,0835.4,4.99,000.00,028.8,027.4,000.0,037.2,030.5,33.1,0000.0,0006.21,0013.86,0005.20
2023-07-25 04:35:00,SystemResetWarning,0835.3,5.00,000.00,028.8,027.6,000.0,037.2,030.6,32.9,0000.0,0006.20,0013.85,0005.21
2023-07-25 04:36:00,SystemResetWarning,0834.7,5.00,000.00,028.9,027.8,000.0,037.2,030.7,33.0,0000.0,0006.17,0014.25,0005.20
2023-07-25 04:37:00,SystemResetWarning,0834.8,5.00,000.00,028.9,027.6,000.0,037.2,030.7,33.0,0000.0,0006.11,0014.55,0005.18
2023-07-25 04:38:00,SystemResetWarning,0834.7,4.98,000.00,028.9,026.1,000.0,037.1,030.5,33.1,0000.0,0006.09,0014.96,0005.18
2023-07-25 04:39:00,SystemResetWarning,0835.1,5.02,000.00,028.9,025.4,000.0,037.0,030.3,33.0,0000.0,0006.09,0014.69,0005.16
2023-07-25 04:40:00,SystemResetWarning,0835.0,5.01,000.00,028.8,025.5,000.0,037.1,030.2,33.3,0000.0,0006.06,0014.59,0005.15
2023-07-25 04:41:00,SystemResetWarning,0835.1,5.00,000.00,028.8,025.8,000.0,037.1,030.2,33.3,0000.0,0006.03,0013.91,0005.14
2023-07-25 04:42:00,SystemResetWarning,0835.2,5.00,000.00,028.8,026.2,000.0,037.1,030.3,33.2,0000.0,0006.02,0014.05,0005.15
2023-07-25 04:43:00,SystemResetWarning,0834.9,5.01,000.00,028.8,026.6,000.0,037.2,030.4,33.3,0000.0,0005.97,0014.07,0005.16
2023-07-25 04:44:00,SystemResetWarning,0834.7,5.00,000.00,028.8,026.9,000.0,037.2,030.5,33.7,0000.0,0005.96,0013.36,0005.17
2023-07-25 04:45:00,SystemResetWarning,0834.7,4.98,000.00,028.8,027.2,000.0,037.2,030.6,34.8,0000.0,0005.97,0013.84,0005.18
2023-07-25 04:46:00,SystemResetWarning,0834.7,5.04,000.00,029.0,027.5,000.0,037.2,030.7,35.0,0000.0,0005.97,0014.10,0005.19
2023-07-25 04:47:00,SystemResetWarning,0834.7,4.96,000.00,029.1,027.7,000.0,037.3,030.8,34.2,0000.0,0006.01,0013.72,0005.20
2023-07-25 04:48:00,SystemResetWarning,0834.8,5.01,000.00,029.3,027.7,000.0,037.3,030.9,33.8,0000.0,0006.06,0013.37,0005.22
2023-07-25 04:49:00,SystemResetWarning,0834.8,4.99,000.00,029.3,026.4,000.0,037.2,030.7,33.2,0000.0,0006.09,0012.71,0005.23
2023-07-25 04:50:00,SystemResetWarning,0835.1,5.01,000.00,029.3,025.5,000.0,037.2,030.5,32.3,0000.0,0006.10,0012.18,0005.26
2023-07-25 04:51:00,SystemResetWarning,0834.6,5.02,000.00,029.2,025.5,000.0,037.2,030.2,31.7,0000.0,0006.13,0012.13,0005.29
2023-07-25 04:52:00,SystemResetWarning,0834.9,5.00,000.00,029.2,025.8,000.0,037.3,030.2,30.9,0000.0,0006.15,0012.18,0005.31
2023-07-25 04:53:00,SystemResetWarning,0834.7,5.00,000.00,029.1,026.2,000.0,037.3,030.3,30.3,0000.0,0006.18,0011.95,0005.33
2023-07-25 04:54:00,SystemResetWarning,0834.7,5.00,000.00,029.2,026.6,000.0,037.4,030.4,30.0,0000.0,0006.24,0011.79,0005.37
2023-07-25 04:55:00,SystemResetWarning,0834.8,5.00,000.00,029.2,026.9,000.0,037.4,030.5,30.3,0000.0,0006.27,0011.18,0005.39
2023-07-25 04:56:00,SystemResetWarning,0834.7,4.99,000.00,029.2,027.2,000.0,037.4,030.6,29.3,0000.0,0006.30,0010.74,0005.41
2023-07-25 04:57:00,SystemResetWarning,0834.8,4.99,000.00,029.3,027.5,000.0,037.5,030.7,28.9,0000.0,0006.33,0010.48,0005.43
2023-07-25 04:58:00,SystemResetWarning,0835.1,4.99,000.00,029.3,027.7,000.0,037.5,030.8,28.9,0000.0,0006.32,0010.50,0005.44
2023-07-25 04:59:00,SystemResetWarning,0834.8,5.00,000.00,029.3,027.8,000.0,037.5,030.8,28.9,0000.0,0006.30,0010.46,0005.45
